Terminal Aerodrome Forecast
Issued by NWS

Home | Current Version | Previous Version | Text Only | Print | Product List | Glossary Off
Versions: 1 2 3 4 5 6 7 8 9 10 11 12 13 14 15 16 17

000
FTUS43 KGRB 281700
TAFMTW
TAF
KMTW 281720Z 2818/2918 28010KT P6SM SKC
     FM282000 29009KT P6SM SCT015 BKN027
     FM290300 34007KT P6SM SCT070 BKN250
     FM291300 34006KT P6SM SCT025 BKN100=

USA.gov is the U.S. government's official web portal to all federal, state and local government web resources and services.